| time (UTC) | temp C | wind direction | speed KPH | gust KPH | rain 1hr cm | rain 24hr cm | rain mn cm | humidity % | barometer mb |
| 20260510211515 | 28 | 286 | 12.9 | 22.5 | 0.00 | 0.00 | 0.00 | 30 | 1014.9 |
| 20260510210011 | 28 | 212 | 11.3 | 22.5 | 0.00 | 0.00 | 0.00 | 31 | 1014.8 |
| 20260510204521 | 28 | 215 | 9.7 | 19.3 | 0.00 | 0.00 | 0.00 | 32 | 1014.7 |
| 20260510203017 | 27 | 257 | 11.3 | 20.9 | 0.00 | 0.00 | 0.00 | 31 | 1014.8 |
| 20260510201516 | 28 | 272 | 9.7 | 27.4 | 0.00 | 0.00 | 0.00 | 30 | 1014.9 |
| 20260510200014 | 27 | 129 | 8.0 | 14.5 | 0.00 | 0.00 | 0.00 | 31 | 1014.9 |
| 20260510194519 | 27 | 336 | 11.3 | 19.3 | 0.00 | 0.00 | 0.00 | 33 | 1015.1 |
| 20260510193013 | 27 | 129 | 6.4 | 20.9 | 0.00 | 0.00 | 0.00 | 32 | 1015.4 |
| 20260510191523 | 27 | 214 | 6.4 | 20.9 | 0.00 | 0.00 | 0.00 | 37 | 1015.5 |
| 20260510190027 | 27 | 194 | 9.7 | 19.3 | 0.00 | 0.00 | 0.00 | 29 | 1015.6 |
| 20260510184510 | 27 | 293 | 3.2 | 19.3 | 0.00 | 0.00 | 0.00 | 33 | 1015.5 |
| 20260510183104 | 27 | 202 | 8.0 | 24.1 | 0.00 | 0.00 | 0.00 | 32 | 1015.7 |
| 20260510181602 | 27 | 236 | 9.7 | 17.7 | 0.00 | 0.00 | 0.00 | 28 | 1015.9 |
| 20260510180058 | 26 | 223 | 6.4 | 22.5 | 0.00 | 0.00 | 0.00 | 30 | 1016.2 |
| 20260510174556 | 26 | 206 | 11.3 | 25.7 | 0.00 | 0.00 | 0.00 | 30 | 1016.4 |
| 20260510173105 | 26 | 223 | 11.3 | 22.5 | 0.00 | 0.00 | 0.00 | 32 | 1016.4 |
| 20260510171547 | 25 | 342 | 3.2 | 12.9 | 0.00 | 0.00 | 0.00 | 34 | 1016.7 |
| 20260510170044 | 26 | 311 | 8.0 | 22.5 | 0.00 | 0.00 | 0.00 | 36 | 1016.8 |
| 20260510164604 | 25 | 243 | 12.9 | 22.5 | 0.00 | 0.00 | 0.00 | 33 | 1016.7 |
| 20260510163046 | 25 | 197 | 8.0 | 16.1 | 0.00 | 0.00 | 0.00 | 36 | 1016.6 |
| 20260510161546 | 25 | 260 | 8.0 | 16.1 | 0.00 | 0.00 | 0.00 | 35 | 1016.9 |
| 20260510160039 | 24 | 119 | 3.2 | 12.9 | 0.00 | 0.00 | 0.00 | 43 | 1016.9 |
| 20260510154538 | 24 | 124 | 3.2 | 9.7 | 0.00 | 0.00 | 0.00 | 44 | 1017.0 |
| 20260510153045 | 23 | 178 | 3.2 | 9.7 | 0.00 | 0.00 | 0.00 | 48 | 1017.1 |
| 20260510151535 | 23 | 135 | 4.8 | 9.7 | 0.00 | 0.00 | 0.00 | 52 | 1017.2 |
| 20260510150029 | 23 | 279 | 3.2 | 14.5 | 0.00 | 0.00 | 0.00 | 54 | 1017.2 |
| 20260510144539 | 22 | 203 | 3.2 | 11.3 | 0.00 | 0.00 | 0.00 | 52 | 1017.2 |
| 20260510143028 | 21 | 178 | 0.0 | 8.0 | 0.00 | 0.00 | 0.00 | 55 | 1017.3 |
| 20260510141524 | 21 | 145 | 4.8 | 9.7 | 0.00 | 0.00 | 0.00 | 56 | 1017.4 |
| 20260510140120 | 20 | 89 | 1.6 | 11.3 | 0.00 | 0.00 | 0.00 | 64 | 1017.5 |
| 20260510134516 | 19 | 260 | 3.2 | 6.4 | 0.00 | 0.00 | 0.00 | 72 | 1017.5 |
| 20260510133004 | 18 | 238 | 1.6 | 6.4 | 0.00 | 0.00 | 0.00 | 77 | 1017.4 |
| 20260510131601 | 16 | 223 | 1.6 | 6.4 | 0.00 | 0.00 | 0.00 | 82 | 1017.4 |
| 20260510130056 | 15 | 113 | 1.6 | 4.8 | 0.00 | 0.00 | 0.00 | 85 | 1017.2 |
| 20260510124553 | 15 | 197 | 1.6 | 4.8 | 0.00 | 0.00 | 0.00 | 89 | 1017.3 |
| 20260510123005 | 13 | 190 | 1.6 | 4.8 | 0.00 | 0.00 | 0.00 | 92 | 1017.3 |
| 20260510121503 | 12 | 117 | 3.2 | 6.4 | 0.00 | 0.00 | 0.00 | 94 | 1017.1 |
| 20260510120100 | 11 | 178 | 0.0 | 3.2 | 0.00 | 0.00 | 0.00 | 95 | 1016.9 |
| 20260510114606 | 10 | 314 | 0.0 | 1.6 | 0.00 | 0.00 | 0.00 | 95 | 1016.6 |
| 20260510113043 | 10 | 269 | 0.0 | 1.6 | 0.00 | 0.00 | 0.00 | 95 | 1016.4 |
| 20260510111540 | 9 | 295 | 0.0 | 1.6 | 0.00 | 0.00 | 0.00 | 94 | 1015.9 |
| 20260510110039 | 8 | 314 | 0.0 | 1.6 | 0.00 | 0.00 | 0.00 | 94 | 1015.7 |
| 20260510104536 | 8 | 135 | 0.0 | 3.2 | 0.00 | 0.00 | 0.00 | 94 | 1015.8 |
| 20260510103045 | 9 | 89 | 0.0 | 3.2 | 0.00 | 0.00 | 0.00 | 94 | 1015.5 |
| 20260510101539 | 9 | 28 | 0.0 | 3.2 | 0.00 | 0.00 | 0.00 | 94 | 1015.2 |
| 20260510100049 | 11 | 281 | 1.6 | 11.3 | 0.00 | 0.00 | 0.00 | 95 | 1014.9 |
| 20260510094544 | 10 | 269 | 8.0 | 12.9 | 0.00 | 0.00 | 0.00 | 96 | 1014.8 |
| 20260510093036 | 9 | 283 | 0.0 | 3.2 | 0.00 | 0.00 | 0.00 | 95 | 1014.8 |
| 20260510091534 | 9 | 321 | 0.0 | 3.2 | 0.00 | 0.00 | 0.00 | 95 | 1014.6 |
| 20260510090035 | 9 | 46 | 1.6 | 4.8 | 0.00 | 0.00 | 0.00 | 94 | 1014.5 |
| 20260510084529 | 10 | 63 | 0.0 | 1.6 | 0.00 | 0.00 | 0.00 | 95 | 1014.5 |
| 20260510083019 | 10 | 245 | 1.6 | 3.2 | 0.00 | 0.00 | 0.00 | 94 | 1014.2 |
| 20260510081518 | 10 | 63 | 0.0 | 3.2 | 0.00 | 0.00 | 0.00 | 94 | 1013.8 |
| 20260510080010 | 11 | 213 | 0.0 | 3.2 | 0.00 | 0.00 | 0.00 | 94 | 1013.9 |
| 20260510074509 | 11 | 46 | 0.0 | 3.2 | 0.00 | 0.00 | 0.00 | 94 | 1013.7 |
| 20260510073020 | 11 | 67 | 1.6 | 3.2 | 0.00 | 0.00 | 0.00 | 93 | 1013.7 |
| 20260510071518 | 11 | 1 | 0.0 | 4.8 | 0.00 | 0.00 | 0.00 | 94 | 1013.5 |
| 20260510070024 | 12 | 199 | 3.2 | 4.8 | 0.00 | 0.00 | 0.00 | 94 | 1013.5 |
| 20260510064523 | 12 | 290 | 1.6 | 6.4 | 0.00 | 0.00 | 0.00 | 94 | 1013.6 |
| 20260510063008 | 12 | 185 | 3.2 | 4.8 | 0.00 | 0.00 | 0.00 | 94 | 1013.7 |
| 20260510061506 | 12 | 214 | 4.8 | 8.0 | 0.00 | 0.00 | 0.00 | 94 | 1013.7 |
| 20260510060006 | 12 | 195 | 3.2 | 4.8 | 0.00 | 0.00 | 0.00 | 94 | 1013.7 |
| 20260510054600 | 13 | 286 | 1.6 | 3.2 | 0.00 | 0.00 | 0.00 | 94 | 1013.7 |
| 20260510053000 | 13 | 63 | 0.0 | 3.2 | 0.00 | 0.00 | 0.00 | 93 | 1013.9 |
| 20260510051603 | 13 | 63 | 0.0 | 3.2 | 0.00 | 0.00 | 0.00 | 93 | 1013.9 |
| 20260510050059 | 14 | 46 | 1.6 | 4.8 | 0.00 | 0.00 | 0.00 | 93 | 1014.0 |
| 20260510044557 | 14 | 331 | 3.2 | 4.8 | 0.00 | 0.00 | 0.00 | 94 | 1013.9 |
| 20260510043103 | 13 | 117 | 0.0 | 1.6 | 0.00 | 0.00 | 0.00 | 93 | 1014.2 |
| 20260510041609 | 14 | 279 | 1.6 | 4.8 | 0.00 | 0.00 | 0.00 | 93 | 1014.1 |
| 20260510040051 | 14 | 269 | 0.0 | 1.6 | 0.00 | 0.00 | 0.00 | 93 | 1013.9 |
| 20260510034551 | 14 | 1 | 1.6 | 3.2 | 0.00 | 0.00 | 0.00 | 92 | 1014.0 |
| 20260510033049 | 15 | 1 | 0.0 | 1.6 | 0.00 | 0.00 | 0.00 | 91 | 1014.1 |
| 20260510031553 | 15 | 46 | 0.0 | 3.2 | 0.00 | 0.00 | 0.00 | 91 | 1014.1 |
| 20260510030051 | 15 | 269 | 0.0 | 1.6 | 0.00 | 0.00 | 0.00 | 89 | 1013.9 |
| 20260510024556 | 16 | 295 | 0.0 | 3.2 | 0.00 | 0.00 | 0.00 | 89 | 1013.8 |
| 20260510023051 | 16 | 206 | 0.0 | 3.2 | 0.00 | 0.00 | 0.00 | 87 | 1013.7 |
| 20260510021552 | 17 | 46 | 1.6 | 4.8 | 0.00 | 0.00 | 0.00 | 83 | 1013.6 |
| 20260510020054 | 17 | 262 | 1.6 | 9.7 | 0.00 | 0.00 | 0.00 | 82 | 1013.3 |
| 20260510014550 | 17 | 216 | 1.6 | 6.4 | 0.00 | 0.00 | 0.00 | 83 | 1013.1 |
| 20260510013104 | 17 | 231 | 1.6 | 4.8 | 0.00 | 0.00 | 0.00 | 83 | 1012.9 |
| 20260510011553 | 17 | 46 | 1.6 | 4.8 | 0.00 | 0.00 | 0.00 | 84 | 1012.6 |
| 20260510010104 | 18 | 117 | 1.6 | 4.8 | 0.00 | 0.00 | 0.00 | 81 | 1012.3 |
| 20260510004558 | 18 | 209 | 3.2 | 4.8 | 0.00 | 0.00 | 0.00 | 78 | 1012.1 |
| 20260510003041 | 19 | 187 | 3.2 | 8.0 | 0.00 | 0.00 | 0.00 | 76 | 1011.8 |
| 20260510001540 | 20 | 178 | 3.2 | 9.7 | 0.00 | 0.00 | 0.00 | 74 | 1011.5 |
| 20260510000042 | 21 | 223 | 1.6 | 6.4 | 0.00 | 0.00 | 0.00 | 71 | 1011.4 |
| 20260509234557 | 21 | 46 | 1.6 | 6.4 | 0.00 | 0.00 | 0.00 | 70 | 1011.5 |
| 20260509233043 | 21 | 202 | 3.2 | 8.0 | 0.00 | 0.00 | 0.00 | 70 | 1011.3 |
| 20260509231543 | 21 | 145 | 3.2 | 8.0 | 0.00 | 0.00 | 0.00 | 69 | 1011.3 |
| 20260509230042 | 21 | 188 | 1.6 | 9.7 | 0.00 | 0.00 | 0.00 | 68 | 1011.1 |
| 20260509224542 | 21 | 193 | 4.8 | 11.3 | 0.00 | 0.00 | 0.00 | 67 | 1010.9 |
| 20260509223033 | 22 | 199 | 4.8 | 19.3 | 0.00 | 0.00 | 0.00 | 65 | 1010.7 |
| 20260509221555 | 23 | 196 | 6.4 | 17.7 | 0.00 | 0.00 | 0.00 | 62 | 1010.6 |
| 20260509220032 | 23 | 207 | 8.0 | 17.7 | 0.00 | 0.00 | 0.00 | 61 | 1010.6 |
| 20260509214535 | 23 | 190 | 8.0 | 20.9 | 0.00 | 0.00 | 0.00 | 60 | 1010.5 |
| 20260509213037 | 23 | 132 | 4.8 | 17.7 | 0.00 | 0.00 | 0.00 | 59 | 1010.4 |